Location: Bear Valley
(38.4650°N, 120.0390°W)
Time: 17:00:23
(UTC-07:00)

ISS - Visible Passes

Search period start: 16 October 2019 00:00
Search period end: 26 October 2019 00:00
Orbit: 411 x 421 km, 51.6° (Epoch: 16 October)

Date Brightness Start Highest point End Pass type
(mag) Time Alt. Az. Time Alt. Az. Time Alt. Az.
23 Oct -1.7 06:17:51 10° SSW 06:20:47 28° SE 06:23:43 10° ENE visible
24 Oct -0.9 05:30:14 10° S 05:32:22 16° SE 05:34:30 10° E visible
25 Oct -3.8 06:17:19 13° SW 06:20:13 89° NW 06:23:34 10° NE visible
